Location: Harstad
(68.8030°N, 16.5460°E)
Time: 04:07:38
(UTC+02:00)

N. Korean satellite - Pass Details

Date: 20 March 2019
Orbit: 457 x 508 km, 97.2° (Epoch: 19 April)

Event Time Altitude Azimuth Distance (km) Brightness Sun altitude
Rises 04:48:43 0° 21° (NNE) 2,508 10.8 -6.8°
Reaches altitude 10° 04:51:34 10° 48° (NE) 1,633 10.4 -6.5°
Maximum altitude 04:53:32 14° 82° (E) 1,395 10.5 -6.3°
Drops below altitude 10° 04:55:30 10° 116° (ESE) 1,639 10.0 -6.2°
Sets 04:58:21 0° 142° (SE) 2,523 10.5 -5.9°
